Location: Lucerne Valley
(34.4439°N, 116.9669°E)
Time: 00:50:13
(UTC-07:00)

Vanguard 1 - All Passes

Search period start: 23 June 2018 00:00
Search period end: 03 July 2018 00:00
Orbit: 650 x 3833 km, 34.3° (Epoch: 22 June)

Date Brightness Start Highest point End Pass type
(mag) Time Alt. Az. Time Alt. Az. Time Alt. Az.
23 Jun - 12:07:41 10° S 12:12:25 19° SE 12:19:00 10° E visible
23 Jun - 14:23:42 10° SW 14:32:01 66° SSE 14:47:54 10° ENE daylight
23 Jun - 16:43:27 10° W 16:55:28 90° S 17:17:03 10° E daylight
23 Jun - 19:04:54 10° WNW 19:21:29 76° SSW 19:45:14 10° ESE daylight
23 Jun - 21:28:39 10° W 21:47:34 45° SW 22:08:15 10° SSE daylight
24 Jun - 00:01:41 10° WSW 00:11:35 14° SW 00:21:06 10° SSW daylight
24 Jun - 12:27:01 10° SSW 12:32:41 28° SE 12:41:32 10° E visible
24 Jun - 14:44:22 10° WSW 14:53:02 76° SSE 15:09:45 10° E daylight
24 Jun - 17:04:29 10° W 17:16:59 89° S 17:39:00 10° E daylight
24 Jun - 19:26:06 10° WNW 19:42:59 69° SSW 20:06:26 10° SE daylight
24 Jun - 21:50:39 10° W 22:08:39 36° SW 22:27:56 10° SSE daylight
25 Jun - 12:46:55 10° SSW 12:53:06 38° SE 13:03:35 10° E visible
25 Jun - 15:05:11 10° WSW 15:14:12 84° SSE 15:31:38 10° E daylight
25 Jun - 17:25:32 10° W 17:38:30 86° S 18:00:53 10° ESE daylight
25 Jun - 19:47:22 10° WNW 20:04:23 60° SSW 20:27:19 10° SE daylight
25 Jun - 22:13:10 10° W 22:29:39 28° SW 22:47:02 10° S daylight
26 Jun - 13:07:11 10° SW 13:13:41 51° SSE 13:25:24 10° ENE visible
26 Jun - 15:26:05 10° W 15:35:27 88° S 15:53:34 10° E daylight
26 Jun - 17:46:35 10° W 18:00:00 81° SSW 18:22:37 10° ESE daylight
26 Jun - 20:08:45 10° W 20:25:44 52° SSW 20:47:52 10° SE daylight
26 Jun - 22:36:37 10° W 22:50:37 21° SW 23:05:11 10° S daylight
27 Jun - 11:12:06 10° SSE 11:15:20 15° SE 11:19:21 10° E visible
27 Jun - 13:27:41 10° SW 13:34:28 63° SSE 13:47:08 10° ENE visible
27 Jun - 15:47:01 10° W 15:56:48 90° S 16:15:31 10° E daylight
27 Jun - 18:07:39 10° W 18:21:28 74° SSW 18:44:08 10° ESE daylight
27 Jun - 20:30:20 10° W 20:46:59 43° SW 21:08:01 10° SSE daylight
27 Jun - 23:02:07 10° WSW 23:11:38 14° SW 23:21:23 10° SSW daylight
28 Jun - 11:31:12 10° S 11:35:39 23° SE 11:41:59 10° E visible
28 Jun - 13:48:23 10° WSW 13:55:24 75° SSE 14:08:52 10° E daylight
28 Jun - 16:07:59 10° W 16:18:10 88° S 16:37:28 10° E daylight
28 Jun - 18:28:45 10° WNW 18:42:52 66° SSW 19:05:22 10° SE daylight
28 Jun - 20:52:15 10° W 21:08:11 35° SW 21:27:40 10° SSE daylight
29 Jun - 11:51:05 10° SSW 11:56:05 34° SE 12:03:56 10° E visible
29 Jun - 14:09:09 10° WSW 14:16:29 83° SSE 14:30:37 10° E daylight
29 Jun - 16:28:57 10° W 16:39:32 85° S 16:59:21 10° ESE daylight
29 Jun - 18:49:56 10° W 19:04:15 57° SSW 19:26:18 10° SE daylight
29 Jun - 21:14:43 10° W 21:29:23 27° SW 21:46:40 10° S daylight
30 Jun - 12:11:21 10° SW 12:16:40 47° SSE 12:25:37 10° E visible
30 Jun - 14:30:01 10° W 14:37:38 88° S 14:52:26 10° E daylight
30 Jun - 16:49:55 10° W 17:00:53 79° SSW 17:21:05 10° ESE daylight
30 Jun - 19:11:14 10° W 19:25:35 48° SSW 19:46:51 10° SE daylight
30 Jun - 21:38:09 10° W 21:50:35 20° SW 22:04:37 10° S daylight
01 Jul - 10:16:39 10° SSE 10:18:28 12° SE 10:20:28 10° ESE visible
01 Jul - 12:31:51 10° SW 12:37:26 61° SSE 12:47:12 10° E visible
01 Jul - 14:50:55 10° W 14:58:51 90° SSE 15:14:18 10° E daylight
01 Jul - 17:10:55 10° W 17:22:13 71° SSW 17:42:36 10° ESE daylight
01 Jul - 19:32:46 10° W 19:46:54 40° SSW 20:06:58 10° SSE daylight
01 Jul - 22:03:59 10° WSW 22:11:50 13° SW 22:20:15 10° SSW daylight
02 Jul - 10:35:22 10° S 10:38:53 20° SE 10:43:22 10° E visible
02 Jul - 12:52:31 10° WSW 12:58:19 74° SSE 13:08:47 10° E visible
02 Jul - 15:11:49 10° W 15:20:05 88° S 15:36:09 10° E daylight
02 Jul - 17:31:57 10° W 17:43:32 62° SSW 18:03:50 10° SE daylight
02 Jul - 19:54:40 10° W 20:08:13 32° SW 20:26:33 10° SSE daylight
